Flag for Italy Weather past 2 weeks in Venice, Italy

Now
36 °F

Partly sunny.


Feels Like: 30 °F
Forecast: 37 / 42 °F
Wind: 7 mph from Northeast

Location: Venice / Tessera

Current Time: Jan 29, 2015 at 11:40:25 AM

Latest Report: Jan 29, 2015 at 10:50 AM


Visibility: 6 mi

Pressure: 29.62 "Hg

Humidity: 70%

Dew point: 27 °F

Location of VeniceLocation

Historic Weather in Venice — Graph

°F

Venice temperature yesterday

Maximum temperature yesterday: 48 °F (at 12:20 PM)
Minimum temperature yesterday: 28 °F (at 5:20 AM)
Average temperature yesterday: 38 °F

Past Weeks' High & Low Weather Summary

 TemperatureHumidityPressure
High54 °F (Jan 17, 7:20 AM)100% (Jan 18, 2:50 AM)30.27 "Hg (Jan 18, 2:50 AM)
Low28 °F (Jan 28, 5:20 AM)40% (Jan 26, 1:50 PM)29.62 "Hg (Jan 29, 9:50 AM)
Average42 °F78%29.96 "Hg
* Reported Jan 14 10:20 AM — Jan 29 10:20 AM, Venice, Weather by CustomWeather, © 2014

Note: Actual official high and low records may vary slightly from our data, if they occured in-between our weather recording intervals... More about our weather records

Advertising

Venice weather history for previous 24 hours

 ConditionsComfort  
Time TempWeatherWind HumidityBarometerVisibility
10:20 AM
Jan 29
36 °FPartly sunny.8 mph75%29.62 "Hg6 mi
9:50 AM34 °FPartly sunny.7 mph81%29.62 "Hg6 mi
9:20 AM34 °FPartly sunny.7 mph81%29.65 "Hg6 mi
8:50 AM34 °FPartly sunny.5 mph75%29.65 "Hg6 mi
8:20 AM32 °FPartly sunny.7 mph80%29.65 "Hg6 mi
7:50 AM34 °FPartly sunny.7 mph75%29.65 "Hg6 mi
7:20 AM34 °FPassing clouds.7 mph75%29.65 "HgN/A
6:50 AM32 °FClear.8 mph80%29.65 "Hg10 mi
6:20 AM32 °FClear.7 mph80%29.68 "Hg10 mi
5:50 AM32 °FClear.5 mph80%29.68 "Hg10 mi
5:20 AM34 °FClear.3 mph81%29.71 "Hg10 mi
4:50 AM34 °FClear.5 mph87%29.71 "Hg10 mi
4:20 AM32 °FClear.3 mph93%29.74 "Hg10 mi
3:50 AM36 °FClear.1 mph87%29.74 "Hg10 mi
3:20 AM34 °FClear.1 mph81%29.77 "Hg10 mi
2:50 AM34 °FClear.2 mph75%29.77 "Hg10 mi
2:20 AM34 °FClear.1 mph81%29.80 "Hg10 mi
1:50 AM36 °FClear.1 mph70%29.80 "Hg10 mi
1:20 AM36 °FClear.3 mph70%29.80 "Hg10 mi
12:50 AM37 °FClear.2 mph70%29.83 "Hg10 mi
12:20 AM37 °FClear.5 mph75%29.83 "Hg10 mi
11:50 PM
Jan 28
37 °FClear.5 mph70%29.83 "Hg10 mi
11:20 PM37 °FClear.3 mph70%29.86 "Hg10 mi
10:50 PM39 °FClear.8 mph70%29.89 "Hg10 mi
10:20 PM39 °FClear.5 mph70%29.89 "Hg10 mi
9:50 PM41 °FClear.6 mph76%29.89 "Hg10 mi
9:20 PM39 °FClear.5 mph75%29.92 "Hg10 mi
8:50 PM39 °FClear.7 mph75%29.92 "Hg10 mi
8:20 PM39 °FClear.6 mph75%29.92 "Hg10 mi
7:50 PM41 °FClear.3 mph70%29.95 "Hg10 mi
7:20 PM41 °FClear.3 mph70%29.95 "Hg10 mi
6:50 PM43 °FClear.2 mph61%29.98 "Hg10 mi
6:20 PM43 °FClear.3 mph66%29.98 "Hg10 mi
5:50 PM43 °FClear.3 mph61%29.98 "Hg10 mi
5:20 PM43 °FClear.3 mph57%29.98 "Hg10 mi
4:50 PM45 °FSunny.2 mph66%29.98 "Hg10 mi
4:20 PM46 °FSunny.2 mph50%29.98 "Hg10 mi
3:50 PM46 °FSunny.2 mph46%29.98 "Hg10 mi
3:20 PM46 °FSunny.5 mph50%29.98 "Hg10 mi
2:50 PM46 °FSunny.6 mph50%29.98 "Hg10 mi
2:20 PM48 °FSunny.7 mph46%30.01 "Hg10 mi
1:50 PM48 °FSunny.5 mph50%30.04 "Hg10 mi
1:20 PM48 °FSunny.3 mph50%30.04 "Hg10 mi
12:50 PM46 °FSunny.5 mph50%30.04 "Hg10 mi
12:20 PM48 °FSunny.2 mph46%30.07 "Hg10 mi
11:50 AM46 °FSunny.1 mph57%30.07 "Hg10 mi
11:20 AM43 °FSunny.1 mph61%30.07 "Hg10 mi
Weather by CustomWeather, © 2014

See weather overviewHow to use our weather pages